Tracking 30116 objects as of 10-Feb-2025
HD Live streaming from Space Station
objects crossing your sky now

ICEYE-X43

Track ICEYE-X43 now!
10-day predictions


NORAD ID: 60539
Int'l Code: 2024-149BZ
Perigee: 587.1 km
Apogee: 590.2 km
Inclination: 97.7 °
Period: 96.3 minutes
Semi major axis: 6959 km
RCS: Unknown
Launch date: August 16, 2024
Source: United States (US)
Launch site: AIR FORCE WESTERN TEST RANGE (AFWTR)
Your satellite tracking list
Your tracking list is empty




NASA's NSSDC Master Catalog

Two Line Element Set (TLE):
1 60539U 24149BZ  25041.49054613  .00007503  00000-0  68594-3 0  9997
2 60539  97.7245 120.1665 0002203 268.6643  91.4326 14.95287662 26511
Source of the keplerian elements: AFSPC